Location: Cantaing
(50.1487°N, 3.1675°E)
Time: 16:01:42
(UTC+00:00)

Gblst 52 Del rocket - Pass Details

Date: 14 January 2026
Orbit: 805 x 1364 km, 51.5° (Epoch: 18 February)

Event Time Altitude Azimuth Distance (km) Brightness Sun altitude
Exits shadow 06:37:10 13° 285° (WNW) 2,213 5.7 -10.0°
Maximum altitude 06:42:02 57° 209° (SSW) 949 4.5 -9.2°
Drops below altitude 10° 06:47:34 10° 132° (SE) 2,463 8.0 -8.4°
Sets 06:50:11 0° 128° (SE) 3,451 9.2 -8.0°
